Time,TemperatureF,DewpointF,PressureIn,WindDirection,WindDirectionDegrees,WindSpeedMPH,WindSpeedGustMPH,Humidity,HourlyPrecipIn,Conditions,Clouds,dailyrainin,SoftwareType,DateUTC
2013-01-30 00:00:00,72.7,65.8,30.13,SSE,149,1.0,10.0,79,0.00,,,0.00,meteohub,2013-01-30 05:00:00,
2013-01-30 00:03:00,72.5,65.3,30.12,SE,143,4.0,10.0,78,0.00,,,0.00,meteohub,2013-01-30 05:03:00,
2013-01-30 00:04:00,72.7,65.5,30.12,SSE,161,2.0,10.0,78,0.00,,,0.00,meteohub,2013-01-30 05:04:00,
2013-01-30 00:09:00,72.5,64.6,30.12,SE,133,2.0,10.0,76,0.00,,,0.00,meteohub,2013-01-30 05:09:00,
2013-01-30 00:14:00,72.7,65.1,30.12,SSE,159,3.0,9.0,77,0.00,,,0.00,meteohub,2013-01-30 05:14:00,
2013-01-30 00:19:00,72.5,64.9,30.12,ESE,109,0.0,9.0,77,0.00,,,0.00,meteohub,2013-01-30 05:19:00,
2013-01-30 00:24:00,72.5,65.3,30.12,ESE,103,0.0,9.0,78,0.00,,,0.00,meteohub,2013-01-30 05:24:00,
2013-01-30 00:29:00,72.5,65.3,30.12,SE,126,6.0,9.0,78,0.00,,,0.00,meteohub,2013-01-30 05:29:00,
2013-01-30 00:34:00,72.5,64.9,30.12,SSE,157,4.0,13.0,77,0.00,,,0.00,meteohub,2013-01-30 05:34:00,
2013-01-30 00:39:00,72.5,65.3,30.11,SSE,152,2.0,13.0,78,0.00,,,0.00,meteohub,2013-01-30 05:39:00,
2013-01-30 00:44:00,72.3,65.5,30.11,SSE,147,1.0,13.0,79,0.00,,,0.00,meteohub,2013-01-30 05:44:00,
2013-01-30 00:50:00,72.3,65.1,30.10,SE,134,7.0,11.0,78,0.00,,,0.00,meteohub,2013-01-30 05:50:00,
2013-01-30 00:55:00,72.3,65.1,30.10,ENE,66,2.0,11.0,78,0.00,,,0.00,meteohub,2013-01-30 05:55:00,
2013-01-30 01:00:00,72.3,65.1,30.10,SSE,148,6.0,11.0,78,0.00,,,0.00,meteohub,2013-01-30 06:00:00,
2013-01-30 01:05:00,72.3,65.1,30.11,SE,138,5.0,14.0,78,0.00,,,0.00,meteohub,2013-01-30 06:05:00,
2013-01-30 01:10:00,72.3,65.1,30.11,SE,131,2.0,14.0,78,0.00,,,0.00,meteohub,2013-01-30 06:10:00,
2013-01-30 01:15:00,72.3,65.1,30.11,SSE,153,1.0,14.0,78,0.00,,,0.00,meteohub,2013-01-30 06:15:00,
2013-01-30 01:20:00,72.3,65.1,30.11,SSE,157,6.0,9.0,78,0.00,,,0.00,meteohub,2013-01-30 06:20:00,
2013-01-30 01:25:00,72.3,64.8,30.11,SE,131,4.0,10.0,77,0.00,,,0.00,meteohub,2013-01-30 06:25:00,
2013-01-30 01:30:00,72.3,64.8,30.11,ESE,105,5.0,10.0,77,0.00,,,0.00,meteohub,2013-01-30 06:30:00,
2013-01-30 01:35:00,72.3,64.4,30.11,SE,142,6.0,10.0,76,0.00,,,0.00,meteohub,2013-01-30 06:35:00,
2013-01-30 01:40:00,72.5,64.9,30.11,South,175,2.0,10.0,77,0.00,,,0.00,meteohub,2013-01-30 06:40:00,
2013-01-30 01:45:00,72.5,64.9,30.11,SSE,150,6.0,10.0,77,0.00,,,0.00,meteohub,2013-01-30 06:45:00,
2013-01-30 01:50:00,72.5,65.3,30.11,SE,128,4.0,10.0,78,0.00,,,0.00,meteohub,2013-01-30 06:50:00,
2013-01-30 01:55:00,72.3,65.1,30.11,ESE,109,3.0,10.0,78,0.00,,,0.00,meteohub,2013-01-30 06:55:00,
2013-01-30 02:00:00,72.3,64.8,30.11,SE,126,3.0,10.0,77,0.00,,,0.00,meteohub,2013-01-30 07:00:00,
2013-01-30 02:05:00,72.3,64.8,30.11,SE,142,1.0,8.0,77,0.00,,,0.00,meteohub,2013-01-30 07:05:00,
2013-01-30 02:10:00,72.1,64.9,30.11,SSW,210,3.0,8.0,78,0.00,,,0.00,meteohub,2013-01-30 07:10:00,
2013-01-30 02:15:00,72.1,64.6,30.11,East,99,0.0,8.0,77,0.00,,,0.00,meteohub,2013-01-30 07:15:00,
2013-01-30 02:20:00,72.1,64.9,30.11,SE,145,2.0,9.0,78,0.00,,,0.00,meteohub,2013-01-30 07:20:00,
2013-01-30 02:25:00,72.1,64.9,30.10,ESE,123,4.0,9.0,78,0.00,,,0.00,meteohub,2013-01-30 07:25:00,
2013-01-30 02:30:00,72.1,65.3,30.10,ESE,115,7.0,9.0,79,0.00,,,0.00,meteohub,2013-01-30 07:30:00,
2013-01-30 02:35:00,72.1,64.9,30.10,SE,139,0.0,9.0,78,0.00,,,0.00,meteohub,2013-01-30 07:35:00,
2013-01-30 02:40:00,72.1,64.9,30.10,SSE,153,6.0,9.0,78,0.00,,,0.00,meteohub,2013-01-30 07:40:00,
2013-01-30 02:45:00,72.1,64.9,30.11,East,101,2.0,9.0,78,0.00,,,0.00,meteohub,2013-01-30 07:45:00,
2013-01-30 02:50:00,72.1,64.9,30.10,ESE,109,1.0,9.0,78,0.00,,,0.00,meteohub,2013-01-30 07:50:00,
2013-01-30 02:55:00,72.0,64.8,30.10,SE,124,2.0,9.0,78,0.00,,,0.00,meteohub,2013-01-30 07:55:00,
2013-01-30 03:00:00,72.1,64.6,30.10,SE,142,4.0,10.0,77,0.00,,,0.00,meteohub,2013-01-30 08:00:00,
2013-01-30 03:06:00,72.1,64.9,30.10,ESE,123,2.0,10.0,78,0.00,,,0.00,meteohub,2013-01-30 08:06:00,
2013-01-30 03:11:00,72.1,64.9,30.10,SSE,152,2.0,10.0,78,0.00,,,0.00,meteohub,2013-01-30 08:11:00,
2013-01-30 03:16:00,72.0,64.4,30.10,ESE,117,5.0,8.0,77,0.00,,,0.00,meteohub,2013-01-30 08:16:00,
2013-01-30 03:21:00,72.0,64.4,30.10,SSE,149,2.0,10.0,77,0.00,,,0.00,meteohub,2013-01-30 08:21:00,
2013-01-30 03:26:00,72.0,64.4,30.10,SE,145,0.0,10.0,77,0.00,,,0.00,meteohub,2013-01-30 08:26:00,
2013-01-30 03:31:00,72.0,64.0,30.10,South,169,2.0,10.0,76,0.00,,,0.00,meteohub,2013-01-30 08:31:00,
2013-01-30 03:36:00,72.0,64.4,30.10,SE,125,2.0,9.0,77,0.00,,,0.00,meteohub,2013-01-30 08:36:00,
2013-01-30 03:41:00,72.0,64.4,30.10,SSE,160,0.0,9.0,77,0.00,,,0.00,meteohub,2013-01-30 08:41:00,
2013-01-30 03:46:00,72.0,64.4,30.10,SSE,162,3.0,9.0,77,0.00,,,0.00,meteohub,2013-01-30 08:46:00,
2013-01-30 03:51:00,72.0,64.8,30.10,East,91,3.0,9.0,78,0.00,,,0.00,meteohub,2013-01-30 08:51:00,
2013-01-30 03:56:00,72.0,64.8,30.09,South,176,4.0,10.0,78,0.00,,,0.00,meteohub,2013-01-30 08:56:00,
2013-01-30 04:01:00,72.0,64.8,30.09,SE,134,5.0,10.0,78,0.00,,,0.00,meteohub,2013-01-30 09:01:00,
2013-01-30 04:06:00,72.0,64.8,30.09,SE,137,0.0,10.0,78,0.00,,,0.00,meteohub,2013-01-30 09:06:00,
2013-01-30 04:11:00,72.0,64.8,30.09,ESE,103,3.0,8.0,78,0.00,,,0.00,meteohub,2013-01-30 09:11:00,
2013-01-30 04:16:00,71.8,64.9,30.09,ESE,107,1.0,8.0,79,0.00,,,0.00,meteohub,2013-01-30 09:16:00,
2013-01-30 04:21:00,71.8,64.6,30.09,ESE,109,4.0,7.0,78,0.00,,,0.00,meteohub,2013-01-30 09:21:00,
2013-01-30 04:26:00,71.8,64.6,30.09,SE,136,2.0,7.0,78,0.00,,,0.00,meteohub,2013-01-30 09:26:00,
2013-01-30 04:31:00,71.8,64.6,30.09,SSW,192,2.0,7.0,78,0.00,,,0.00,meteohub,2013-01-30 09:31:00,
2013-01-30 04:36:00,71.8,64.6,30.08,SE,136,2.0,8.0,78,0.00,,,0.00,meteohub,2013-01-30 09:36:00,
2013-01-30 04:41:00,71.8,64.6,30.08,SSE,157,0.0,11.0,78,0.00,,,0.00,meteohub,2013-01-30 09:41:00,
2013-01-30 04:46:00,71.8,64.6,30.08,SE,128,4.0,11.0,78,0.00,,,0.00,meteohub,2013-01-30 09:46:00,
2013-01-30 04:51:00,71.8,64.6,30.08,SSE,153,2.0,11.0,78,0.00,,,0.00,meteohub,2013-01-30 09:51:00,
2013-01-30 04:56:00,71.6,64.4,30.08,SE,142,2.0,9.0,78,0.00,,,0.00,meteohub,2013-01-30 09:56:00,
2013-01-30 05:01:00,71.4,64.2,30.07,SE,124,1.0,9.0,78,0.00,,,0.00,meteohub,2013-01-30 10:01:00,
2013-01-30 05:06:00,71.4,64.2,30.08,SSE,167,1.0,9.0,78,0.00,,,0.00,meteohub,2013-01-30 10:06:00,
2013-01-30 05:11:00,71.6,64.0,30.08,South,178,4.0,9.0,77,0.00,,,0.00,meteohub,2013-01-30 10:11:00,
2013-01-30 05:16:00,71.8,64.2,30.07,East,91,5.0,13.0,77,0.00,,,0.00,meteohub,2013-01-30 10:16:00,
2013-01-30 05:21:00,71.8,64.2,30.07,ESE,104,5.0,13.0,77,0.00,,,0.00,meteohub,2013-01-30 10:21:00,
2013-01-30 05:26:00,71.8,64.2,30.07,East,96,7.0,13.0,77,0.00,,,0.00,meteohub,2013-01-30 10:26:00,
2013-01-30 05:31:00,71.8,64.2,30.07,SSE,168,3.0,12.0,77,0.00,,,0.00,meteohub,2013-01-30 10:31:00,
2013-01-30 05:36:00,71.8,64.2,30.07,SSE,152,4.0,12.0,77,0.00,,,0.00,meteohub,2013-01-30 10:36:00,
2013-01-30 05:41:00,71.8,64.2,30.08,SE,128,3.0,11.0,77,0.00,,,0.00,meteohub,2013-01-30 10:41:00,
2013-01-30 05:46:00,71.8,64.2,30.08,SSW,206,4.0,10.0,77,0.00,,,0.00,meteohub,2013-01-30 10:46:00,
2013-01-30 05:51:00,71.8,63.9,30.08,ESE,120,3.0,12.0,76,0.00,,,0.00,meteohub,2013-01-30 10:51:00,
2013-01-30 05:56:00,71.8,63.9,30.08,ESE,108,7.0,12.0,76,0.00,,,0.00,meteohub,2013-01-30 10:56:00,
2013-01-30 06:01:00,71.8,63.9,30.09,SSW,194,3.0,12.0,76,0.00,,,0.00,meteohub,2013-01-30 11:01:00,
2013-01-30 06:06:00,71.8,63.5,30.09,SE,126,4.0,10.0,75,0.00,,,0.00,meteohub,2013-01-30 11:06:00,
2013-01-30 06:11:00,71.8,63.9,30.09,SSW,193,2.0,10.0,76,0.00,,,0.00,meteohub,2013-01-30 11:11:00,
2013-01-30 06:16:00,71.8,63.9,30.09,SSW,194,4.0,10.0,76,0.00,,,0.00,meteohub,2013-01-30 11:16:00,
2013-01-30 06:22:00,71.8,64.2,30.09,SSW,192,4.0,10.0,77,0.00,,,0.00,meteohub,2013-01-30 11:22:00,
2013-01-30 06:27:00,72.0,64.4,30.09,ESE,123,0.0,8.0,77,0.00,,,0.00,meteohub,2013-01-30 11:27:00,
2013-01-30 06:32:00,72.0,64.4,30.10,SSE,162,5.0,8.0,77,0.00,,,0.00,meteohub,2013-01-30 11:32:00,
2013-01-30 06:37:00,71.8,64.2,30.10,SE,142,2.0,8.0,77,0.00,,,0.00,meteohub,2013-01-30 11:37:00,
2013-01-30 06:42:00,71.8,64.2,30.10,SSE,159,1.0,8.0,77,0.00,,,0.00,meteohub,2013-01-30 11:42:00,
2013-01-30 06:47:00,71.8,64.2,30.10,East,83,1.0,8.0,77,0.00,,,0.00,meteohub,2013-01-30 11:47:00,
2013-01-30 06:52:00,71.8,63.9,30.10,ESE,113,3.0,7.0,76,0.00,,,0.00,meteohub,2013-01-30 11:52:00,
2013-01-30 06:57:00,72.0,64.4,30.10,SE,133,5.0,9.0,77,0.00,,,0.00,meteohub,2013-01-30 11:57:00,
2013-01-30 07:02:00,72.0,64.4,30.10,South,174,3.0,9.0,77,0.00,,,0.00,meteohub,2013-01-30 12:02:00,
2013-01-30 07:07:00,72.0,63.7,30.10,SE,125,3.0,11.0,75,0.00,,,0.00,meteohub,2013-01-30 12:07:00,
2013-01-30 07:12:00,72.0,63.7,30.10,SSE,155,5.0,11.0,75,0.00,,,0.00,meteohub,2013-01-30 12:12:00,
2013-01-30 07:16:00,72.0,63.1,30.10,South,182,3.0,11.0,74,0.00,,,0.00,meteohub,2013-01-30 12:16:00,
2013-01-30 07:22:00,72.0,63.7,30.10,East,94,2.0,10.0,75,0.00,,,0.00,meteohub,2013-01-30 12:22:00,
2013-01-30 07:27:00,72.0,63.1,30.10,SE,145,5.0,11.0,74,0.00,,,0.00,meteohub,2013-01-30 12:27:00,
2013-01-30 07:32:00,72.0,62.8,30.10,SSE,147,2.0,11.0,73,0.00,,,0.00,meteohub,2013-01-30 12:32:00,
2013-01-30 07:37:00,72.0,63.7,30.10,SE,136,8.0,12.0,75,0.00,,,0.00,meteohub,2013-01-30 12:37:00,
2013-01-30 07:42:00,72.1,63.9,30.10,South,181,1.0,12.0,75,0.00,,,0.00,meteohub,2013-01-30 12:42:00,
2013-01-30 07:47:00,72.1,64.2,30.10,SSE,150,4.0,12.0,76,0.00,,,0.00,meteohub,2013-01-30 12:47:00,
2013-01-30 07:52:00,72.3,64.4,30.10,South,175,3.0,11.0,76,0.00,,,0.00,meteohub,2013-01-30 12:52:00,
2013-01-30 07:57:00,72.5,64.6,30.09,NE,42,0.0,10.0,76,0.00,,,0.00,meteohub,2013-01-30 12:57:00,
2013-01-30 08:02:00,72.7,64.2,30.10,SSE,161,5.0,10.0,75,0.00,,,0.00,meteohub,2013-01-30 13:02:00,
2013-01-30 08:07:00,72.7,64.2,30.09,East,94,1.0,11.0,75,0.00,,,0.00,meteohub,2013-01-30 13:07:00,
2013-01-30 08:12:00,72.9,64.4,30.09,South,190,7.0,11.0,75,0.00,,,0.00,meteohub,2013-01-30 13:12:00,
2013-01-30 08:17:00,73.0,64.6,30.09,SE,140,2.0,12.0,75,0.00,,,0.00,meteohub,2013-01-30 13:17:00,
2013-01-30 08:22:00,73.4,64.2,30.09,ESE,113,4.0,12.0,73,0.00,,,0.00,meteohub,2013-01-30 13:22:00,
2013-01-30 08:27:00,73.6,64.8,30.09,ESE,118,7.0,12.0,74,0.00,,,0.00,meteohub,2013-01-30 13:27:00,
2013-01-30 08:32:00,73.8,64.2,30.09,East,96,5.0,16.0,72,0.00,,,0.00,meteohub,2013-01-30 13:32:00,
2013-01-30 08:37:00,73.9,64.4,30.09,SE,129,4.0,16.0,72,0.00,,,0.00,meteohub,2013-01-30 13:37:00,
2013-01-30 08:42:00,74.1,64.0,30.09,SE,138,2.0,16.0,71,0.00,,,0.00,meteohub,2013-01-30 13:42:00,
2013-01-30 08:47:00,74.3,64.8,30.10,SE,136,9.0,11.0,72,0.00,,,0.00,meteohub,2013-01-30 13:47:00,
2013-01-30 08:52:00,74.1,64.6,30.10,ENE,75,0.0,11.0,72,0.00,,,0.00,meteohub,2013-01-30 13:52:00,
2013-01-30 08:57:00,74.1,64.6,30.10,SE,144,3.0,14.0,72,0.00,,,0.00,meteohub,2013-01-30 13:57:00,
2013-01-30 09:02:00,74.1,64.9,30.10,SSE,148,5.0,14.0,73,0.00,,,0.00,meteohub,2013-01-30 14:02:00,
2013-01-30 09:07:00,74.5,65.3,30.10,SSW,197,7.0,14.0,73,0.00,,,0.00,meteohub,2013-01-30 14:07:00,
2013-01-30 09:12:00,74.7,65.1,30.10,SSE,150,6.0,12.0,72,0.00,,,0.00,meteohub,2013-01-30 14:12:00,
2013-01-30 09:17:00,74.8,64.8,30.10,SSW,197,4.0,12.0,71,0.00,,,0.00,meteohub,2013-01-30 14:17:00,
2013-01-30 09:22:00,74.7,65.1,30.10,ESE,117,3.0,10.0,72,0.00,,,0.00,meteohub,2013-01-30 14:22:00,
2013-01-30 09:27:00,74.7,64.6,30.10,SE,140,1.0,10.0,71,0.00,,,0.00,meteohub,2013-01-30 14:27:00,
2013-01-30 09:32:00,74.5,65.3,30.10,SSE,156,3.0,14.0,73,0.00,,,0.00,meteohub,2013-01-30 14:32:00,
2013-01-30 09:37:00,74.7,65.5,30.10,ESE,117,5.0,14.0,73,0.00,,,0.00,meteohub,2013-01-30 14:37:00,
2013-01-30 09:42:00,75.2,66.0,30.10,WNW,301,1.0,14.0,73,0.00,,,0.00,meteohub,2013-01-30 14:42:00,
2013-01-30 09:47:00,75.6,65.5,30.10,SSW,200,11.0,11.0,71,0.00,,,0.00,meteohub,2013-01-30 14:47:00,
2013-01-30 09:52:00,75.7,65.3,30.10,SE,130,6.0,12.0,70,0.00,,,0.00,meteohub,2013-01-30 14:52:00,
2013-01-30 09:57:00,75.7,65.7,30.10,SSE,151,3.0,13.0,71,0.00,,,0.00,meteohub,2013-01-30 14:57:00,
2013-01-30 10:02:00,75.9,65.5,30.10,SSW,213,4.0,13.0,70,0.00,,,0.00,meteohub,2013-01-30 15:02:00,
2013-01-30 10:07:00,76.1,66.0,30.10,ESE,103,4.0,13.0,71,0.00,,,0.00,meteohub,2013-01-30 15:07:00,
2013-01-30 10:12:00,75.9,65.5,30.10,South,180,2.0,13.0,70,0.00,,,0.00,meteohub,2013-01-30 15:12:00,
2013-01-30 10:17:00,75.2,65.1,30.10,SW,221,5.0,13.0,71,0.00,,,0.00,meteohub,2013-01-30 15:17:00,
2013-01-30 10:22:00,74.8,65.7,30.09,SSE,159,3.0,13.0,73,0.00,,,0.00,meteohub,2013-01-30 15:22:00,
2013-01-30 10:27:00,75.6,65.5,30.09,SSE,157,3.0,13.0,71,0.00,,,0.00,meteohub,2013-01-30 15:27:00,
2013-01-30 10:32:00,75.9,65.8,30.09,SE,144,2.0,13.0,71,0.00,,,0.00,meteohub,2013-01-30 15:32:00,
2013-01-30 10:37:00,75.9,65.5,30.09,SSE,150,6.0,13.0,70,0.00,,,0.00,meteohub,2013-01-30 15:37:00,
2013-01-30 10:42:00,76.3,65.8,30.09,SSE,168,2.0,12.0,70,0.00,,,0.00,meteohub,2013-01-30 15:42:00,
2013-01-30 10:47:00,76.6,66.2,30.08,ESE,103,1.0,12.0,70,0.00,,,0.00,meteohub,2013-01-30 15:47:00,
2013-01-30 10:52:00,76.5,66.0,30.07,South,173,7.0,13.0,70,0.00,,,0.00,meteohub,2013-01-30 15:52:00,
2013-01-30 10:57:00,75.9,65.8,30.07,East,92,10.0,13.0,71,0.00,,,0.00,meteohub,2013-01-30 15:57:00,
2013-01-30 11:02:00,75.9,65.5,30.07,SE,140,6.0,13.0,70,0.00,,,0.00,meteohub,2013-01-30 16:02:00,
2013-01-30 11:07:00,76.1,65.1,30.07,SSE,163,5.0,18.0,69,0.00,,,0.00,meteohub,2013-01-30 16:07:00,
2013-01-30 11:12:00,76.3,65.8,30.07,SSE,163,7.0,18.0,70,0.00,,,0.00,meteohub,2013-01-30 16:12:00,
2013-01-30 11:17:00,76.3,65.8,30.06,South,185,3.0,18.0,70,0.00,,,0.00,meteohub,2013-01-30 16:17:00,
2013-01-30 11:22:00,76.6,65.7,30.06,South,186,12.0,15.0,69,0.00,,,0.00,meteohub,2013-01-30 16:22:00,
2013-01-30 11:27:00,76.8,66.2,30.06,SSW,206,10.0,15.0,70,0.00,,,0.00,meteohub,2013-01-30 16:27:00,
2013-01-30 11:32:00,77.0,66.0,30.06,South,181,7.0,16.0,69,0.00,,,0.00,meteohub,2013-01-30 16:32:00,
2013-01-30 11:37:00,76.8,65.8,30.06,SSE,148,6.0,16.0,69,0.00,,,0.00,meteohub,2013-01-30 16:37:00,
2013-01-30 11:42:00,76.6,66.2,30.06,SE,141,8.0,16.0,70,0.00,,,0.00,meteohub,2013-01-30 16:42:00,
2013-01-30 11:47:00,76.8,66.2,30.05,SSW,208,7.0,15.0,70,0.00,,,0.00,meteohub,2013-01-30 16:47:00,
2013-01-30 11:52:00,76.8,66.7,30.05,SE,144,4.0,15.0,71,0.00,,,0.00,meteohub,2013-01-30 16:52:00,
2013-01-30 11:57:00,77.2,66.6,30.05,ESE,103,9.0,16.0,70,0.00,,,0.00,meteohub,2013-01-30 16:57:00,
2013-01-30 12:02:00,77.2,66.6,30.05,SSW,200,4.0,16.0,70,0.00,,,0.00,meteohub,2013-01-30 17:02:00,
2013-01-30 12:07:00,77.2,67.1,30.04,SSE,148,7.0,16.0,71,0.00,,,0.00,meteohub,2013-01-30 17:07:00,
2013-01-30 12:12:00,77.7,67.1,30.04,SSE,162,4.0,13.0,70,0.00,,,0.00,meteohub,2013-01-30 17:12:00,
2013-01-30 12:17:00,77.4,66.7,30.03,ESE,107,7.0,14.0,70,0.00,,,0.00,meteohub,2013-01-30 17:17:00,
2013-01-30 12:22:00,77.2,67.1,30.02,SSW,202,5.0,14.0,71,0.00,,,0.00,meteohub,2013-01-30 17:22:00,
2013-01-30 12:27:00,77.0,66.4,30.02,ENE,78,5.0,14.0,70,0.00,,,0.00,meteohub,2013-01-30 17:27:00,
2013-01-30 12:32:00,77.2,67.5,30.01,South,187,3.0,18.0,72,0.00,,,0.00,meteohub,2013-01-30 17:32:00,
2013-01-30 12:37:00,77.4,67.3,30.01,SSE,161,4.0,18.0,71,0.00,,,0.00,meteohub,2013-01-30 17:37:00,
2013-01-30 12:42:00,77.5,67.8,30.01,SSE,151,3.0,18.0,72,0.00,,,0.00,meteohub,2013-01-30 17:42:00,
2013-01-30 12:47:00,77.9,67.8,30.01,South,189,6.0,14.0,71,0.00,,,0.00,meteohub,2013-01-30 17:47:00,
2013-01-30 12:52:00,78.1,67.5,30.00,SSE,167,6.0,13.0,70,0.00,,,0.00,meteohub,2013-01-30 17:52:00,
2013-01-30 12:57:00,77.9,66.9,30.00,South,187,9.0,14.0,69,0.00,,,0.00,meteohub,2013-01-30 17:57:00,
2013-01-30 13:02:00,77.4,67.3,30.00,SSE,153,15.0,15.0,71,0.00,,,0.00,meteohub,2013-01-30 18:02:00,
2013-01-30 13:07:00,77.2,67.1,30.00,SSW,202,4.0,15.0,71,0.00,,,0.00,meteohub,2013-01-30 18:07:00,
2013-01-30 13:12:00,77.2,67.5,30.00,SSW,203,7.0,15.0,72,0.00,,,0.00,meteohub,2013-01-30 18:12:00,
2013-01-30 13:17:00,76.8,66.7,30.00,ESE,122,1.0,15.0,71,0.00,,,0.00,meteohub,2013-01-30 18:17:00,
2013-01-30 13:22:00,76.3,66.9,30.00,South,183,3.0,13.0,73,0.00,,,0.00,meteohub,2013-01-30 18:22:00,
2013-01-30 13:27:00,76.3,67.5,29.99,SSW,203,3.0,14.0,74,0.00,,,0.00,meteohub,2013-01-30 18:27:00,
2013-01-30 13:32:00,76.5,67.1,29.99,East,87,8.0,14.0,73,0.00,,,0.00,meteohub,2013-01-30 18:32:00,
2013-01-30 13:37:00,76.6,67.3,29.99,SSW,212,1.0,14.0,73,0.00,,,0.00,meteohub,2013-01-30 18:37:00,
2013-01-30 13:42:00,77.0,67.6,29.99,SSE,159,5.0,13.0,73,0.00,,,0.00,meteohub,2013-01-30 18:42:00,
2013-01-30 13:47:00,76.8,67.5,29.99,SE,132,7.0,15.0,73,0.00,,,0.00,meteohub,2013-01-30 18:47:00,
2013-01-30 13:53:00,77.4,67.6,29.99,South,186,3.0,15.0,72,0.00,,,0.00,meteohub,2013-01-30 18:53:00,
2013-01-30 13:58:00,77.5,67.8,29.98,SSW,202,7.0,15.0,72,0.00,,,0.00,meteohub,2013-01-30 18:58:00,
2013-01-30 14:03:00,77.4,67.6,29.98,South,177,3.0,13.0,72,0.00,,,0.00,meteohub,2013-01-30 19:03:00,
2013-01-30 14:08:00,77.5,68.2,29.98,SE,127,1.0,13.0,73,0.00,,,0.00,meteohub,2013-01-30 19:08:00,
2013-01-30 14:13:00,77.5,68.2,29.98,ESE,120,5.0,15.0,73,0.00,,,0.00,meteohub,2013-01-30 19:13:00,
2013-01-30 14:18:00,77.9,68.2,29.98,South,191,6.0,15.0,72,0.00,,,0.00,meteohub,2013-01-30 19:18:00,
2013-01-30 14:23:00,77.7,68.0,29.98,SSE,165,9.0,15.0,72,0.00,,,0.00,meteohub,2013-01-30 19:23:00,
2013-01-30 14:28:00,77.2,68.2,29.98,South,183,5.0,14.0,74,0.00,,,0.00,meteohub,2013-01-30 19:28:00,
2013-01-30 14:33:00,77.4,68.0,29.97,SSE,148,5.0,14.0,73,0.00,,,0.00,meteohub,2013-01-30 19:33:00,
2013-01-30 14:38:00,78.1,68.4,29.97,South,179,7.0,14.0,72,0.00,,,0.00,meteohub,2013-01-30 19:38:00,
2013-01-30 14:43:00,77.5,67.8,29.97,South,172,3.0,14.0,72,0.00,,,0.00,meteohub,2013-01-30 19:43:00,
2013-01-30 14:48:00,77.5,67.8,29.98,South,182,6.0,16.0,72,0.00,,,0.00,meteohub,2013-01-30 19:48:00,
2013-01-30 14:53:00,77.5,67.8,29.98,SSW,204,4.0,16.0,72,0.00,,,0.00,meteohub,2013-01-30 19:53:00,
2013-01-30 14:58:00,77.0,67.3,29.99,ESE,117,5.0,16.0,72,0.00,,,0.00,meteohub,2013-01-30 19:58:00,
2013-01-30 15:03:00,76.6,67.6,29.99,SSW,200,4.0,12.0,74,0.00,,,0.00,meteohub,2013-01-30 20:03:00,
2013-01-30 15:08:00,76.8,67.8,29.99,South,187,8.0,12.0,74,0.00,,,0.00,meteohub,2013-01-30 20:08:00,
2013-01-30 15:13:00,76.6,67.6,29.99,SSE,163,5.0,12.0,74,0.00,,,0.00,meteohub,2013-01-30 20:13:00,
2013-01-30 15:18:00,76.5,68.0,30.00,SSW,213,10.0,12.0,75,0.00,,,0.00,meteohub,2013-01-30 20:18:00,
2013-01-30 15:23:00,76.3,67.8,30.00,South,173,2.0,12.0,75,0.00,,,0.00,meteohub,2013-01-30 20:23:00,
2013-01-30 15:28:00,76.3,67.8,30.00,SSE,159,4.0,13.0,75,0.00,,,0.00,meteohub,2013-01-30 20:28:00,
2013-01-30 15:33:00,76.5,68.0,29.99,ESE,119,4.0,16.0,75,0.00,,,0.00,meteohub,2013-01-30 20:33:00,
2013-01-30 15:38:00,76.8,67.1,30.00,SSW,196,10.0,16.0,72,0.00,,,0.00,meteohub,2013-01-30 20:38:00,
2013-01-30 15:43:00,77.5,66.9,30.00,SSE,163,1.0,16.0,70,0.00,,,0.00,meteohub,2013-01-30 20:43:00,
2013-01-30 15:48:00,78.1,67.8,30.00,SE,134,2.0,15.0,71,0.00,,,0.00,meteohub,2013-01-30 20:48:00,
2013-01-30 15:53:00,78.3,67.3,30.00,SSW,196,6.0,15.0,69,0.00,,,0.00,meteohub,2013-01-30 20:53:00,
2013-01-30 15:58:00,78.1,67.1,30.00,SSW,197,2.0,15.0,69,0.00,,,0.00,meteohub,2013-01-30 20:58:00,
2013-01-30 16:03:00,77.5,66.6,30.01,East,88,0.0,12.0,69,0.00,,,0.00,meteohub,2013-01-30 21:03:00,
2013-01-30 16:08:00,77.4,67.3,30.01,South,174,1.0,12.0,71,0.00,,,0.00,meteohub,2013-01-30 21:08:00,
2013-01-30 16:13:00,77.2,67.1,30.01,SSW,198,8.0,10.0,71,0.00,,,0.00,meteohub,2013-01-30 21:13:00,
2013-01-30 16:18:00,77.0,66.9,30.01,South,178,5.0,9.0,71,0.00,,,0.00,meteohub,2013-01-30 21:18:00,
2013-01-30 16:23:00,77.4,67.3,30.01,SSW,205,6.0,10.0,71,0.00,,,0.00,meteohub,2013-01-30 21:23:00,
2013-01-30 16:28:00,77.2,67.1,30.01,SE,145,2.0,10.0,71,0.00,,,0.00,meteohub,2013-01-30 21:28:00,
2013-01-30 16:34:00,76.8,66.7,30.01,SE,134,6.0,13.0,71,0.00,,,0.00,meteohub,2013-01-30 21:34:00,
2013-01-30 16:39:00,77.0,66.9,30.01,South,173,5.0,13.0,71,0.00,,,0.00,meteohub,2013-01-30 21:39:00,
2013-01-30 16:44:00,76.8,66.7,30.02,SSE,165,6.0,13.0,71,0.00,,,0.00,meteohub,2013-01-30 21:44:00,
2013-01-30 16:49:00,76.6,66.9,30.02,South,180,0.0,11.0,72,0.00,,,0.00,meteohub,2013-01-30 21:49:00,
2013-01-30 16:54:00,77.0,66.9,30.02,SSW,197,4.0,11.0,71,0.00,,,0.00,meteohub,2013-01-30 21:54:00,
2013-01-30 16:59:00,77.2,67.1,30.01,SSE,159,0.0,9.0,71,0.00,,,0.00,meteohub,2013-01-30 21:59:00,
2013-01-30 17:04:00,77.4,66.7,30.01,South,175,3.0,8.0,70,0.00,,,0.00,meteohub,2013-01-30 22:04:00,
2013-01-30 17:09:00,77.4,66.4,30.01,South,177,2.0,8.0,69,0.00,,,0.00,meteohub,2013-01-30 22:09:00,
2013-01-30 17:14:00,77.2,66.2,30.00,SSW,207,0.0,8.0,69,0.00,,,0.00,meteohub,2013-01-30 22:14:00,
2013-01-30 17:19:00,77.2,67.5,30.00,ESE,121,2.0,8.0,72,0.00,,,0.00,meteohub,2013-01-30 22:19:00,
2013-01-30 17:24:00,76.6,67.6,30.00,ESE,121,1.0,8.0,74,0.00,,,0.00,meteohub,2013-01-30 22:24:00,
2013-01-30 17:29:00,76.1,67.6,30.00,SE,130,4.0,9.0,75,0.00,,,0.00,meteohub,2013-01-30 22:29:00,
2013-01-30 17:34:00,75.7,67.6,30.00,SE,138,2.0,9.0,76,0.00,,,0.00,meteohub,2013-01-30 22:34:00,
2013-01-30 17:39:00,75.6,68.2,29.99,ESE,103,3.0,9.0,78,0.00,,,0.00,meteohub,2013-01-30 22:39:00,
2013-01-30 17:44:00,75.2,67.8,29.99,SSE,163,2.0,11.0,78,0.00,,,0.00,meteohub,2013-01-30 22:44:00,
2013-01-30 17:49:00,75.0,67.6,29.99,SE,134,3.0,11.0,78,0.00,,,0.00,meteohub,2013-01-30 22:49:00,
2013-01-30 17:54:00,74.8,67.8,29.99,SSE,167,4.0,11.0,79,0.00,,,0.00,meteohub,2013-01-30 22:54:00,
2013-01-30 17:59:00,74.7,67.6,29.98,ENE,74,1.0,10.0,79,0.00,,,0.00,meteohub,2013-01-30 22:59:00,
2013-01-30 18:04:00,74.7,67.6,29.99,South,170,3.0,9.0,79,0.00,,,0.00,meteohub,2013-01-30 23:04:00,
2013-01-30 18:09:00,74.7,68.0,29.99,South,181,1.0,9.0,80,0.00,,,0.00,meteohub,2013-01-30 23:09:00,
2013-01-30 18:14:00,74.5,68.2,29.98,South,182,4.0,9.0,81,0.00,,,0.00,meteohub,2013-01-30 23:14:00,
2013-01-30 18:19:00,74.3,68.0,29.98,South,171,2.0,7.0,81,0.00,,,0.00,meteohub,2013-01-30 23:19:00,
2013-01-30 18:24:00,74.3,68.0,29.98,SSW,208,6.0,8.0,81,0.00,,,0.00,meteohub,2013-01-30 23:24:00,
2013-01-30 18:29:00,74.1,67.6,29.98,South,169,6.0,8.0,80,0.00,,,0.00,meteohub,2013-01-30 23:29:00,
2013-01-30 18:34:00,74.1,67.6,29.99,SW,216,5.0,9.0,80,0.00,,,0.00,meteohub,2013-01-30 23:34:00,
2013-01-30 18:39:00,74.1,68.0,29.99,South,171,2.0,9.0,81,0.00,,,0.00,meteohub,2013-01-30 23:39:00,
2013-01-30 18:44:00,73.9,67.8,29.99,South,186,2.0,9.0,81,0.00,,,0.00,meteohub,2013-01-30 23:44:00,
2013-01-30 18:49:00,73.9,68.2,29.99,South,169,2.0,8.0,82,0.00,,,0.00,meteohub,2013-01-30 23:49:00,
2013-01-30 18:54:00,73.8,68.0,29.99,South,173,0.0,8.0,82,0.00,,,0.00,meteohub,2013-01-30 23:54:00,
2013-01-30 18:59:00,73.8,68.0,29.99,South,182,0.0,6.0,82,0.00,,,0.00,meteohub,2013-01-30 23:59:00,
2013-01-30 19:04:00,73.6,67.8,29.99,SSW,205,4.0,6.0,82,0.00,,,0.00,meteohub,2013-01-31 00:04:00,
2013-01-30 19:09:00,73.6,67.8,29.99,SSE,155,1.0,6.0,82,0.00,,,0.00,meteohub,2013-01-31 00:09:00,
2013-01-30 19:14:00,73.4,67.6,29.99,SSW,205,2.0,6.0,82,0.00,,,0.00,meteohub,2013-01-31 00:14:00,
2013-01-30 19:19:00,73.4,67.6,29.99,SW,217,0.0,6.0,82,0.00,,,0.00,meteohub,2013-01-31 00:19:00,
2013-01-30 19:24:00,73.2,67.5,29.99,SSW,205,1.0,6.0,82,0.00,,,0.00,meteohub,2013-01-31 00:24:00,
2013-01-30 19:29:00,73.2,67.8,29.99,South,170,0.0,5.0,83,0.00,,,0.00,meteohub,2013-01-31 00:29:00,
2013-01-30 19:34:00,73.0,67.6,29.99,South,169,0.0,6.0,83,0.00,,,0.00,meteohub,2013-01-31 00:34:00,
2013-01-30 19:39:00,72.9,67.5,29.99,South,176,0.0,6.0,83,0.00,,,0.00,meteohub,2013-01-31 00:39:00,
2013-01-30 19:44:00,72.7,67.6,29.99,South,178,0.0,6.0,84,0.00,,,0.00,meteohub,2013-01-31 00:44:00,
2013-01-30 19:49:00,72.7,67.6,29.99,South,175,0.0,2.0,84,0.00,,,0.00,meteohub,2013-01-31 00:49:00,
2013-01-30 19:54:00,72.3,67.3,29.99,South,173,0.0,2.0,84,0.00,,,0.00,meteohub,2013-01-31 00:54:00,
2013-01-30 19:59:00,72.3,67.6,29.99,South,175,0.0,1.0,85,0.00,,,0.00,meteohub,2013-01-31 00:59:00,
2013-01-30 20:04:00,72.1,67.5,29.99,South,169,0.0,2.0,85,0.00,,,0.00,meteohub,2013-01-31 01:04:00,
2013-01-30 20:09:00,72.1,67.5,29.99,SSW,194,0.0,2.0,85,0.00,,,0.00,meteohub,2013-01-31 01:09:00,
2013-01-30 20:14:00,72.0,67.3,29.99,SSW,194,0.0,2.0,85,0.00,,,0.00,meteohub,2013-01-31 01:14:00,
2013-01-30 20:19:00,72.0,67.3,29.99,SSW,198,0.0,2.0,85,0.00,,,0.00,meteohub,2013-01-31 01:19:00,
2013-01-30 20:24:00,72.0,67.3,29.99,SSW,199,1.0,3.0,85,0.00,,,0.00,meteohub,2013-01-31 01:24:00,
2013-01-30 20:29:00,72.0,67.3,30.00,South,174,0.0,3.0,85,0.00,,,0.00,meteohub,2013-01-31 01:29:00,
2013-01-30 20:34:00,72.0,67.3,30.00,SSW,198,0.0,3.0,85,0.00,,,0.00,meteohub,2013-01-31 01:34:00,
2013-01-30 20:39:00,72.0,67.3,30.00,SSW,197,0.0,3.0,85,0.00,,,0.00,meteohub,2013-01-31 01:39:00,
2013-01-30 20:44:00,71.8,67.3,30.00,SSW,198,0.0,3.0,86,0.00,,,0.00,meteohub,2013-01-31 01:44:00,
2013-01-30 20:49:00,71.8,67.3,30.00,South,173,0.0,3.0,86,0.00,,,0.00,meteohub,2013-01-31 01:49:00,
2013-01-30 20:54:00,71.6,67.5,30.00,SSW,192,0.0,3.0,87,0.00,,,0.00,meteohub,2013-01-31 01:54:00,
2013-01-30 21:00:00,71.6,67.5,30.00,SSW,198,1.0,3.0,87,0.00,,,0.00,meteohub,2013-01-31 02:00:00,
2013-01-30 21:05:00,71.6,67.5,30.00,SSW,194,0.0,4.0,87,0.00,,,0.00,meteohub,2013-01-31 02:05:00,
2013-01-30 21:10:00,71.6,67.5,30.01,SSW,194,0.0,4.0,87,0.00,,,0.00,meteohub,2013-01-31 02:10:00,
2013-01-30 21:15:00,71.4,67.3,30.00,SSE,163,0.0,4.0,87,0.00,,,0.00,meteohub,2013-01-31 02:15:00,
2013-01-30 21:20:00,71.4,67.6,30.00,SSW,202,0.0,4.0,88,0.00,,,0.00,meteohub,2013-01-31 02:20:00,
2013-01-30 21:25:00,71.4,67.6,30.00,South,182,0.0,4.0,88,0.00,,,0.00,meteohub,2013-01-31 02:25:00,
2013-01-30 21:30:00,71.4,67.6,30.00,South,185,0.0,4.0,88,0.00,,,0.00,meteohub,2013-01-31 02:30:00,
2013-01-30 21:35:00,71.4,67.6,30.00,South,178,0.0,3.0,88,0.00,,,0.00,meteohub,2013-01-31 02:35:00,
2013-01-30 21:40:00,71.4,67.6,30.01,South,191,0.0,3.0,88,0.00,,,0.00,meteohub,2013-01-31 02:40:00,
2013-01-30 21:45:00,71.2,67.5,30.01,South,181,0.0,3.0,88,0.00,,,0.00,meteohub,2013-01-31 02:45:00,
2013-01-30 21:50:00,71.2,67.8,30.01,SSW,194,0.0,3.0,89,0.00,,,0.00,meteohub,2013-01-31 02:50:00,
2013-01-30 21:55:00,71.1,67.6,30.01,SSW,194,0.0,3.0,89,0.00,,,0.00,meteohub,2013-01-31 02:55:00,
2013-01-30 22:00:00,71.1,67.6,30.00,South,175,0.0,2.0,89,0.00,,,0.00,meteohub,2013-01-31 03:00:00,
2013-01-30 22:05:00,70.9,67.5,30.01,South,175,0.0,1.0,89,0.00,,,0.00,meteohub,2013-01-31 03:05:00,
2013-01-30 22:10:00,70.7,67.6,30.01,South,184,0.0,1.0,90,0.00,,,0.00,meteohub,2013-01-31 03:10:00,
2013-01-30 22:15:00,70.5,67.5,30.01,South,188,0.0,1.0,90,0.00,,,0.00,meteohub,2013-01-31 03:15:00,
2013-01-30 22:20:00,70.5,67.5,30.01,South,178,0.0,2.0,90,0.00,,,0.00,meteohub,2013-01-31 03:20:00,
2013-01-30 22:25:00,70.5,67.5,30.00,SSE,166,0.0,3.0,90,0.00,,,0.00,meteohub,2013-01-31 03:25:00,
2013-01-30 22:30:00,70.5,67.5,30.00,SSE,157,1.0,3.0,90,0.00,,,0.00,meteohub,2013-01-31 03:30:00,
2013-01-30 22:35:00,70.9,67.8,30.00,SE,140,3.0,4.0,90,0.00,,,0.00,meteohub,2013-01-31 03:35:00,
2013-01-30 22:40:00,71.1,68.0,30.00,SSE,154,3.0,4.0,90,0.00,,,0.00,meteohub,2013-01-31 03:40:00,
2013-01-30 22:45:00,71.2,68.2,30.00,South,173,0.0,4.0,90,0.00,,,0.00,meteohub,2013-01-31 03:45:00,
2013-01-30 22:50:00,71.6,68.2,29.99,South,169,4.0,5.0,89,0.00,,,0.00,meteohub,2013-01-31 03:50:00,
2013-01-30 22:55:00,71.8,68.4,30.00,SSW,192,4.0,7.0,89,0.00,,,0.00,meteohub,2013-01-31 03:55:00,
2013-01-30 23:00:00,72.0,68.5,29.99,SSW,206,3.0,7.0,89,0.00,,,0.00,meteohub,2013-01-31 04:00:00,
2013-01-30 23:05:00,72.0,68.5,29.99,SSW,198,0.0,6.0,89,0.00,,,0.00,meteohub,2013-01-31 04:05:00,
2013-01-30 23:10:00,72.1,68.7,29.99,South,176,4.0,6.0,89,0.00,,,0.00,meteohub,2013-01-31 04:10:00,
2013-01-30 23:15:00,72.1,68.7,30.00,South,186,0.0,6.0,89,0.00,,,0.00,meteohub,2013-01-31 04:15:00,
2013-01-30 23:20:00,72.0,68.5,30.00,SSW,200,1.0,6.0,89,0.00,,,0.00,meteohub,2013-01-31 04:20:00,
2013-01-30 23:25:00,72.0,68.5,29.99,South,184,0.0,6.0,89,0.00,,,0.00,meteohub,2013-01-31 04:25:00,
2013-01-30 23:30:00,72.0,68.5,29.99,SE,135,2.0,5.0,89,0.00,,,0.00,meteohub,2013-01-31 04:30:00,
2013-01-30 23:35:00,71.8,68.4,29.99,South,181,2.0,5.0,89,0.00,,,0.00,meteohub,2013-01-31 04:35:00,
2013-01-30 23:40:00,72.0,68.5,29.99,SE,131,0.0,7.0,89,0.00,,,0.00,meteohub,2013-01-31 04:40:00,
2013-01-30 23:45:00,72.0,68.2,29.99,South,170,2.0,7.0,88,0.00,,,0.00,meteohub,2013-01-31 04:45:00,
2013-01-30 23:50:00,72.1,68.4,29.99,SSW,197,1.0,7.0,88,0.00,,,0.00,meteohub,2013-01-31 04:50:00,
2013-01-30 23:55:00,72.1,68.4,30.00,SSW,206,1.0,6.0,88,0.00,,,0.00,meteohub,2013-01-31 04:55:00,